TimeEST,TemperatureF,Dew PointF,Humidity,Sea Level PressureIn,VisibilityMPH,Wind Direction,Wind SpeedMPH,Gust SpeedMPH,PrecipitationIn,Events,Conditions,WindDirDegrees,DateUTC
12:53 AM,55.9,53.1,90,30.13,5.0,SW,6.9,-,N/A,,Overcast,230,2012-12-03 05:53:00
1:09 AM,55.4,53.6,94,30.12,5.0,WSW,5.8,-,N/A,,Overcast,240,2012-12-03 06:09:00
1:53 AM,53.1,52.0,96,30.13,3.0,WSW,3.5,-,N/A,,Overcast,240,2012-12-03 06:53:00
2:44 AM,55.4,53.6,94,30.13,2.5,South,4.6,-,N/A,,Overcast,170,2012-12-03 07:44:00
2:53 AM,55.0,53.1,93,30.13,2.5,South,3.5,-,N/A,,Overcast,180,2012-12-03 07:53:00
3:00 AM,55.4,53.6,94,30.13,3.0,South,3.5,-,N/A,,Overcast,180,2012-12-03 08:00:00
3:30 AM,50.0,48.2,94,30.13,0.5,NNE,5.8,-,N/A,Fog,Fog,20,2012-12-03 08:30:00
3:53 AM,50.0,48.9,96,30.14,0.2,NE,4.6,-,N/A,Fog,Fog,40,2012-12-03 08:53:00
4:53 AM,52.0,51.1,97,30.14,0.2,Calm,Calm,-,N/A,Fog,Fog,0,2012-12-03 09:53:00
5:53 AM,54.0,53.1,97,30.15,0.5,Calm,Calm,-,N/A,Fog,Fog,0,2012-12-03 10:53:00
6:10 AM,53.6,53.6,100,30.15,1.0,Calm,Calm,-,N/A,,Overcast,0,2012-12-03 11:10:00
6:20 AM,53.6,53.6,100,30.16,2.5,Calm,Calm,-,N/A,,Overcast,0,2012-12-03 11:20:00
6:32 AM,53.6,53.6,100,30.15,2.5,SE,3.5,-,N/A,,Overcast,140,2012-12-03 11:32:00
6:53 AM,54.0,53.1,97,30.17,3.0,SSE,3.5,-,N/A,,Overcast,150,2012-12-03 11:53:00
7:17 AM,53.6,53.6,100,30.16,4.0,SSE,5.8,-,N/A,,Overcast,160,2012-12-03 12:17:00
7:36 AM,53.6,51.8,94,30.16,3.0,SSE,6.9,-,N/A,,Mostly Cloudy,150,2012-12-03 12:36:00
7:53 AM,54.0,52.0,93,30.16,2.5,SSE,5.8,-,N/A,,Mostly Cloudy,160,2012-12-03 12:53:00
8:25 AM,53.6,51.8,94,30.15,2.0,SSE,10.4,-,N/A,,Scattered Clouds,160,2012-12-03 13:25:00
8:28 AM,53.6,51.8,94,30.15,1.2,SSE,10.4,-,N/A,,Mostly Cloudy,160,2012-12-03 13:28:00
8:53 AM,54.0,53.1,97,30.17,1.5,SSE,6.9,-,N/A,,Overcast,160,2012-12-03 13:53:00
9:13 AM,55.4,53.6,94,30.16,2.5,SSE,11.5,-,N/A,,Overcast,160,2012-12-03 14:13:00
9:20 AM,55.4,53.6,94,30.16,3.0,SSE,8.1,-,N/A,,Overcast,150,2012-12-03 14:20:00
10:53 AM,57.0,54.0,89,30.15,4.0,SSE,9.2,-,N/A,,Overcast,150,2012-12-03 15:53:00
11:53 AM,57.9,55.0,90,30.12,5.0,SSE,11.5,-,N/A,,Overcast,160,2012-12-03 16:53:00
12:27 PM,60.8,55.4,82,30.09,6.0,SSE,10.4,-,N/A,,Haze,160,2012-12-03 17:27:00
12:53 PM,61.0,55.9,83,30.09,7.0,SSE,13.8,21.9,N/A,,Partly Cloudy,160,2012-12-03 17:53:00
1:23 PM,60.8,55.4,82,30.09,7.0,South,12.7,-,N/A,,Mostly Cloudy,170,2012-12-03 18:23:00
1:48 PM,62.6,55.4,77,30.08,6.0,South,10.4,-,N/A,,Haze,180,2012-12-03 18:48:00
1:53 PM,62.1,55.9,80,30.08,6.0,South,13.8,19.6,N/A,,Haze,170,2012-12-03 18:53:00
2:53 PM,63.0,55.9,78,30.06,6.0,SSE,11.5,20.7,N/A,,Haze,160,2012-12-03 19:53:00
3:53 PM,62.1,55.9,80,30.06,5.0,SSE,10.4,-,N/A,,Haze,160,2012-12-03 20:53:00
4:26 PM,60.8,55.4,82,30.06,5.0,SSE,10.4,-,N/A,,Haze,150,2012-12-03 21:26:00
4:53 PM,61.0,55.9,83,30.08,5.0,South,11.5,-,N/A,,Haze,170,2012-12-03 21:53:00
5:10 PM,60.8,55.4,82,30.07,6.0,South,9.2,17.3,N/A,,Haze,170,2012-12-03 22:10:00
5:44 PM,60.8,55.4,82,30.07,7.0,South,11.5,-,N/A,,Scattered Clouds,170,2012-12-03 22:44:00
5:53 PM,60.1,55.9,86,30.07,7.0,South,10.4,-,N/A,,Scattered Clouds,170,2012-12-03 22:53:00
6:10 PM,60.8,55.4,82,30.08,7.0,South,8.1,-,N/A,,Mostly Cloudy,170,2012-12-03 23:10:00
6:37 PM,62.6,55.4,77,30.07,9.0,SSE,11.5,19.6,N/A,,Overcast,160,2012-12-03 23:37:00
6:53 PM,62.1,55.9,80,30.06,9.0,South,12.7,-,N/A,,Overcast,170,2012-12-03 23:53:00
7:53 PM,61.0,55.0,81,30.06,10.0,SSE,13.8,-,N/A,,Clear,160,2012-12-04 00:53:00
8:53 PM,60.1,55.0,83,30.05,10.0,SSE,15.0,21.9,N/A,,Clear,160,2012-12-04 01:53:00
9:53 PM,60.1,55.0,83,30.04,10.0,SSE,13.8,-,N/A,,Clear,160,2012-12-04 02:53:00
10:53 PM,60.1,54.0,80,30.04,10.0,SSE,11.5,-,N/A,,Clear,160,2012-12-04 03:53:00
11:53 PM,63.0,54.0,72,30.03,10.0,South,19.6,24.2,N/A,,Clear,190,2012-12-04 04:53:00